Погода Октябрьское

Погода Октябрьское : погода сейчас, прогноз погоды и архив. Всё, что Вы хотите узнать о погоде Октябрьское!

Поиск расширенной информации на нашем сайте:

Другие новости

Новости СМИ2

Главная страница сайта

Новости сайта

03.07.2017

Напоминаем, что на нашем специализированном сайте Метеоцентр.Азия вы можете получить высокодетализированные автоматические прогнозы погоды по пунктам России, СНГ и мира в авиационном формате (включающие направление и скорость ветра, видимость, явления погоды, количество и форму облачности, нижнюю и верхнюю границу облачности).


Погода Октябрьское - сегодня

Время (UTC), дата Ветер
(°,м/с) 
Видим.   Явления Облачность Т
(°С)
Тd
(°С)
f(%) Тe
(°С)
Pmin
(гПа)
dP
(гПа)
Po
(мм)
O2
(г/м3)
Тmin Tmax R s Состояние
почвы
03 14.08.18 220 (ЮЗ) 10 км    10/3 1000 м верхняя 
[Sc|Ci fib]
+19 +15.1 78 +29  1000.7  0.3  744  277  +17.7         
06 14.08.18 350 (С) 10 км    8/3 1500 м средняя 
[Sc|Ac trans]
+21.7 +14.6 64 +30  1001.9  1.3  745  275           
09 14.08.18 260 (З) 3{10}  20000 м    10/8 1000 м верхняя 
[Cu Sc|Ci fib]
+22.9 +9.7 43 +24  1002.8  0.9  746  276           
12 14.08.18 220 (ЮЗ) 20000 м    10/3 1000 м верхняя 
[Cu med, cong|Ci fib]
+24.7 +6.7 32 +25  1003.8  747  275           
18 14.08.18 010 (С) 20000 м    10/0 верхняя 
[Ci fib]
+13.9 +10.5 80 +17  1006.1  1.1  748  285           
21 14.08.18 040 (СВ) 20000 м    6/6 1000 м 
[Sc]
+12.4 +9.9 85 +15  1006.5  0.3  748  287           
00 15.08.18 020 (С) 20000 м    10/10 1000 м 
[Sc]
+14.1 +12.3 89 +19  1007.3  0.9  749  285           
03 15.08.18 040 (СВ) 20000 м    10/10 1000 м 
[Sc]
+15.1 +11.8 81 +20  1007.2  -0.1  749  284  +11.6         
06 15.08.18 тихо ()   4000 м  слаб. дождь  10/0 средняя 
[As op]
+16.6 +13.2 80 +22  1007.9  0.8  750  282           
09 15.08.18 300 (СЗ) 20000 м  в посл. час дождь  10/0 средняя 
[As op]
+17.5 +11.4 67 +21  1007.8  -0.1  749  282           
12 15.08.18 300 (СЗ) 20000 м  {дождь}  10/0 средняя 
[As op]
+16.7 +10 65 +18  1008.7  0.8  750  283           
18 15.08.18 350 (С) 20000 м    10/0 средняя, верхняя 
[Ac trans|Ci fib]
+12.5 +9.8 84 +14  1009.8  0.2  751  288           
21 15.08.18 280 (З) н/о    н/о 
+9.3 +7.8 90 +9  1010.2  0.3  751  291           
00 16.08.18 340 (С) 20000 м    10/0 верхняя 
[Ci fib]
+10.3 +8.9 91 +10  1010.8  0.5  752  290           
03 16.08.18 160 (Ю) 4000 м  дымка  10/0 верхняя 
[Ci fib]
+14.9 +11.5 80 +19  1011.1  0.4  752  285  +9.9         
06 16.08.18 270 (З) 20000 м    10/3 1000 м верхняя 
[Cu hum|Ci fib]
+17.3 +9 58 +18  1010.9  -0.1  752  283           
09 16.08.18 260 (З) 20000 м    10/6 600 м верхняя 
[Cu hum|Ci fib]
+18.9 +7.3 47 +20  1010.6  -0.2  752  282           
12 16.08.18 330 (СЗ) 20000 м    10/10 600 м кучево-дожд. 
[Cb cap]
+18 +9.9 59 +20  1010.6  -0.1  752  282           
18 16.08.18 060 (СВ) 4000 м  слаб. ливневой дождь  10/10 600 м кучево-дожд. 
[Cb cap]
+12.5 +11.5 94 +15  1010.7  0.3  752  287           
21 16.08.18 040 (СВ) 20000 м  {ливн. осадки}  10/10 1000 м 
[Sc]
+11.8 +11.2 96 +15  1010.2  -0.5  751  288           
00 17.08.18 060 (СВ) 20000 м  {ливн. осадки}  10/6 1000 м средняя 
[Sc|As op]
+11.5 +11 97 +14  1010.2  751  288           
03 17.08.18 040 (СВ) 4000 м  слаб. дождь  10/0 средняя 
[As op]
+11.5 +11.1 97 +15  1010.8  0.5  752  288  +11.5       
06 17.08.18 060 (СВ) 20000 м  слаб. дождь  10/0 средняя 
[As op]
+12.3 +11.5 95 +16  1011.1  0.4  752  288           
09 17.08.18 290 (З) 20000 м  в посл. час дождь  10/8 600 м средняя 
[Sc|As op]
+10.8 +9.5 92 +11  1011.3  0.2  752  290           
12 17.08.18 040 (СВ) 4000 м  слаб. дождь  10/0 средняя 
[As op]
+13.7 +12.4 92 +19  1011.1  -0.2  752  286           
Время (UTC), дата Ветер
(°,м/с) 
Видим.   Явления Облачность Т
(°С)
Тd
(°С)
f(%) Тe
(°С)
Pmin
(гПа)
dP
(гПа)
Po
(мм)
O2
(г/м3)
Тmin Tmax R s Состояние
почвы

Для получения пояснительной информации подведите курсор к названию столбца.

ПОГОДА Октябрьское - архив

Всё, что Вы хотите узнать о погоде Октябрьское - удобно и подробно!

Выберите нужную дату (начиная с 1 января 2015* года) и нажмите кнопку "Найти".
Будут отображены архивные сводки погоды по пункту Октябрьское, начиная с указанной даты.


Отображать данные в формате CSV (для использования в таблицах Excel)


Внимание! Наш архив погоды предназначен исключительно для личного некоммерческого использования в познавательных целях. Если Вам необходимы официальные справки о состоянии погоды (для производственных, юридических, коммерческих и т.п. целей), обращайтесь в органы Росгидромета.

*Примечание: данная дата относится к архиву по метеостанциям СССР (Россия, СНГ, Балтия).
Архив по метеостанциям Зарубежной Европы и Азии (кроме Китая) хранится 10 дней, по другим регионам земного шара (Китай, Африка, Америка, Австралия, Океания) - 1 день.

Октябрьское - район местоположения метеостанции


Название, широта, долгота, высота метеостанции:
Октябрьское 62.4°ш. 66.1°д. 72 м над ур. моря [Российская Федерация]

Дополнительная информация

В oтличие oт бoльшинства пoгoдных сайтoв мы публикуем пoдрoбную метеoинфoрмацию в детальнoм прoфессиoнальнoм фoрмате.

Характеристики температуры и влажнoсти вoздуха измеряются на высoте 2 м в тени вдали oт зданий и деревьев.
Скoрoсть ветра измеряется на высoте 10 м (на урoвне рoста челoвека скoрoсть ветра ниже в 1.5-2 раза). Если метеoстанция нахoдится в гoрoде или в лесу, тo скoрoсть ветра занижена на 2-4 м/с пo сравнению с oткрытым местoм. Скoрoсть ветра над акватoриями крупных рек и oзёр, а также на вершинах хoлмoв на 2-5 м/с выше, чем в oбычных услoвиях.
Атмoсфернoе давление в разных тoчках местнoсти мoжет значительнo oтличаться oт давления на метеoстанции, в зависимoсти oт услoвий рельефа (при пoдъёме на 10 м давление пoнижается примернo на 1 мм рт.ст.).